EW9582 Weather Reports


time (UTC)temp
F
wind
direction
speed
knots
gust
knots
rain 1hr
in
rain 24hr
in
rain mn
in
humidity
%
barometer
mb
20260507223008 81 113 7.0 10.4 0.00 0.00 0.00 66 1012.0
20260507221510 82 94 6.1 9.6 0.00 0.00 0.00 66 1012.0
20260507220006 82 93 5.2 11.3 0.00 0.00 0.00 67 1012.0
20260507214505 82 94 6.1 10.4 0.00 0.00 0.00 65 1012.2
20260507213005 82 111 6.1 12.2 0.00 0.00 0.00 67 1012.3
20260507211505 82 98 7.8 14.8 0.00 0.00 0.00 67 1012.3
20260507210003 82 90 8.7 13.9 0.00 0.00 0.00 68 1012.4
20260507204502 81 84 7.0 13.9 0.00 0.00 0.00 68 1012.5
20260507203002 81 63 9.6 15.6 0.00 0.00 0.00 71 1012.7
20260507201501 81 105 11.3 14.8 0.00 0.00 0.00 71 1012.8
20260507194600 81 92 10.4 14.8 0.00 0.00 0.00 72 1013.0
20260507193059 81 92 9.6 16.5 0.00 0.00 0.00 70 1013.2
20260507191600 82 117 9.6 14.8 0.00 0.00 0.00 71 1013.2
20260507190058 81 109 7.8 13.9 0.00 0.00 0.00 71 1013.5
20260507184558 82 98 9.6 14.8 0.00 0.00 0.00 71 1013.4
20260507183057 82 108 9.6 14.8 0.00 0.00 0.00 71 1013.6
20260507181556 82 105 9.6 13.9 0.00 0.00 0.00 71 1013.5
20260507180100 82 80 9.6 13.0 0.00 0.00 0.00 70 1013.5
20260507174607 82 68 8.7 14.8 0.00 0.00 0.00 71 1013.5
20260507173052 82 76 8.7 12.2 0.00 0.00 0.00 71 1013.6
20260507171603 81 132 6.1 11.3 0.00 0.00 0.00 72 1013.6
20260507170048 80 98 5.2 10.4 0.00 0.00 0.00 72 1013.7
20260507164549 81 115 6.1 7.8 0.00 0.00 0.00 71 1014.0
20260507163049 80 122 4.3 7.0 0.00 0.00 0.00 73 1014.0
20260507161544 79 143 2.6 4.3 0.00 0.00 0.00 71 1014.0
20260507160048 80 120 0.0 2.6 0.00 0.00 0.00 68 1014.0
20260507154539 79 312 0.0 1.7 0.00 0.00 0.00 69 1014.2
20260507153043 79 15 0.0 2.6 0.00 0.00 0.00 71 1014.0
20260507151535 78 309 2.6 6.1 0.00 0.00 0.00 71 1014.0
20260507150033 77 296 3.5 7.0 0.00 0.00 0.00 73 1013.8
20260507144534 76 304 7.0 8.7 0.00 0.00 0.00 75 1013.5
20260507143027 76 312 5.2 8.7 0.00 0.00 0.00 76 1013.6
20260507141526 75 313 4.3 6.1 0.00 0.00 0.00 78 1013.5
20260507140024 75 316 3.5 5.2 0.00 0.00 0.00 80 1013.3
20260507134524 73 335 2.6 4.3 0.00 0.00 0.00 81 1013.2
20260507133022 73 319 2.6 3.5 0.00 0.00 0.00 81 1013.1
20260507131522 73 327 0.0 2.6 0.00 0.00 0.00 81 1012.8
20260507130026 73 295 0.9 2.6 0.00 0.00 0.00 80 1012.6
20260507124531 76 305 0.0 4.3 0.00 0.00 0.00 80 1012.3
20260507123018 76 128 3.5 7.0 0.00 0.00 0.00 85 1012.4
20260507121515 75 138 0.0 1.7 0.00 0.00 0.00 83 1012.4
20260507120013 75 14 0.0 1.7 0.00 0.00 0.00 82 1012.1
20260507114510 75 49 0.0 0.9 0.00 0.00 0.00 81 1012.0
20260507111642 74 302 0.0 0.9 0.00 0.00 0.00 79 1012.0
20260507104521 74 333 0.9 2.6 0.00 0.00 0.00 81 1011.7
20260507103020 74 322 0.9 3.5 0.00 0.00 0.00 81 1011.6
20260507101520 74 304 2.6 2.6 0.00 0.00 0.00 82 1011.5
20260507100024 74 339 0.0 2.6 0.00 0.00 0.00 82 1011.6
20260507094519 73 320 1.7 3.5 0.00 0.00 0.00 82 1011.4
20260507093024 73 303 0.9 3.5 0.00 0.00 0.00 82 1011.6
20260507091523 73 319 1.7 3.5 0.00 0.00 0.00 82 1011.8
20260507090014 73 312 0.9 1.7 0.00 0.00 0.00 81 1012.1
20260507084519 73 286 1.7 4.3 0.00 0.00 0.00 82 1012.2
20260507083013 73 283 1.7 2.6 0.00 0.00 0.00 83 1012.0
20260507081511 73 301 0.9 2.6 0.00 0.00 0.00 83 1012.1
20260507080007 73 299 0.0 1.7 0.00 0.00 0.00 83 1012.5
20260507074508 73 309 0.0 0.9 0.00 0.00 0.00 83 1012.5
20260507073005 73 309 0.0 0.0 0.00 0.00 0.00 83 1012.6
20260507071504 74 309 0.0 0.0 0.00 0.00 0.00 82 1012.8
20260507070116 74 292 0.0 1.7 0.00 0.00 0.00 82 1013.0
20260507064612 74 279 0.0 0.9 0.00 0.00 0.00 82 1013.1
20260507063101 74 287 0.0 1.7 0.00 0.00 0.00 81 1013.2
20260507061555 75 310 0.0 1.7 0.00 0.00 0.00 80 1013.2
20260507060053 75 278 0.9 2.6 0.00 0.00 0.00 81 1013.4
20260507054555 75 286 0.9 1.7 0.00 0.00 0.00 80 1013.3
20260507053050 76 283 0.0 1.7 0.00 0.00 0.00 80 1013.6
20260507051549 77 318 0.0 1.7 0.00 0.00 0.00 79 1013.4
20260507050046 77 254 0.0 1.7 0.00 0.00 0.00 79 1013.6
20260507044546 77 243 0.0 1.7 0.00 0.00 0.00 79 1013.5
20260507043044 77 236 0.0 1.7 0.00 0.00 0.00 78 1013.5
20260507041545 78 250 0.0 0.0 0.00 0.00 0.00 78 1013.4
20260507040042 78 269 0.0 1.7 0.00 0.00 0.00 78 1013.4
20260507034542 78 240 0.0 1.7 0.00 0.00 0.00 78 1013.5
20260507033042 78 226 0.0 1.7 0.00 0.00 0.00 77 1013.4
20260507031539 78 219 0.9 3.5 0.00 0.00 0.00 77 1013.3
20260507030042 78 221 0.0 2.6 0.00 0.00 0.00 77 1013.2
20260507024538 79 221 0.9 2.6 0.00 0.00 0.00 77 1013.2
20260507023037 79 257 0.0 3.5 0.00 0.00 0.00 76 1012.9
20260507021538 79 218 0.9 4.3 0.00 0.00 0.00 76 1012.9
20260507020042 79 217 1.7 3.5 0.00 0.00 0.00 76 1012.9
20260507014533 80 196 1.7 3.5 0.00 0.00 0.00 75 1012.9
20260507013045 80 145 0.9 3.5 0.00 0.00 0.00 74 1012.9
20260507011533 81 210 0.9 4.3 0.00 0.00 0.00 74 1012.9
20260507010036 81 229 0.9 3.5 0.00 0.00 0.00 73 1012.7
20260507004530 81 188 0.9 5.2 0.00 0.00 0.00 74 1012.8
20260507003029 81 127 4.3 7.0 0.00 0.00 0.00 72 1012.7
20260507001531 81 158 3.5 6.1 0.00 0.00 0.00 71 1012.8
20260507000028 81 123 4.3 7.0 0.00 0.00 0.00 73 1012.7
20260506234534 81 96 3.5 7.8 0.00 0.00 0.00 74 1012.6
20260506233042 81 82 4.3 8.7 0.00 0.00 0.00 73 1012.6
20260506231528 81 115 6.1 9.6 0.00 0.00 0.00 73 1012.7
20260506230026 82 84 6.1 9.6 0.00 0.00 0.00 73 1012.7
20260506224523 81 104 7.8 12.2 0.00 0.00 0.00 72 1012.7